Time,TemperatureF,DewpointF,PressureIn,WindDirection,WindDirectionDegrees,WindSpeedMPH,WindSpeedGustMPH,Humidity,HourlyPrecipIn,Conditions,Clouds,dailyrainin,SoftwareType,DateUTC
2013-02-21 00:00:00,42.7,24.4,29.80,East,93,2.0,5.0,48,0.00,CLR,,0.00,WeatherDisplay:10.37,2013-02-21 08:00:00,
2013-02-21 00:05:00,43.2,24.8,29.80,ENE,70,1.0,3.0,48,0.00,CLR,,0.00,WeatherDisplay:10.37,2013-02-21 08:05:00,
2013-02-21 00:10:00,42.9,23.5,29.80,North,10,0.0,6.0,46,0.00,CLR,,0.00,WeatherDisplay:10.37,2013-02-21 08:10:00,
2013-02-21 00:20:00,42.8,23.5,29.80,East,90,3.0,6.0,46,0.00,CLR,,0.00,WeatherDisplay:10.37,2013-02-21 08:20:00,
2013-02-21 00:30:00,42.6,22.8,29.80,ESE,107,3.0,6.0,45,0.00,CLR,,0.00,WeatherDisplay:10.37,2013-02-21 08:30:00,
2013-02-21 00:35:00,42.6,22.7,29.80,East,91,2.0,5.0,45,0.00,CLR,,0.00,WeatherDisplay:10.37,2013-02-21 08:35:00,
2013-02-21 00:40:00,42.6,22.7,29.80,ENE,70,1.0,4.0,45,0.00,CLR,,0.00,WeatherDisplay:10.37,2013-02-21 08:40:00,
2013-02-21 00:45:00,42.6,22.7,29.80,East,79,2.0,5.0,45,0.00,CLR,,0.00,WeatherDisplay:10.37,2013-02-21 08:45:00,
2013-02-21 00:50:00,42.4,22.6,29.80,East,89,1.0,5.0,45,0.00,CLR,,0.00,WeatherDisplay:10.37,2013-02-21 08:50:00,
2013-02-21 00:59:00,42.4,22.0,29.80,NE,39,1.0,4.0,44,0.00,CLR,,0.00,WeatherDisplay:10.37,2013-02-21 08:59:00,
2013-02-21 01:05:00,42.8,22.4,29.80,East,101,3.0,5.0,44,0.00,CLR,,0.00,WeatherDisplay:10.37,2013-02-21 09:05:00,
2013-02-21 01:10:00,42.8,21.8,29.80,ESE,112,1.0,5.0,43,0.00,CLR,,0.00,WeatherDisplay:10.37,2013-02-21 09:10:00,
2013-02-21 01:15:00,42.6,21.1,29.80,ESE,112,0.0,4.0,42,0.00,CLR,,0.00,WeatherDisplay:10.37,2013-02-21 09:15:00,
2013-02-21 01:20:00,42.3,21.3,29.80,ESE,112,0.0,4.0,43,0.00,CLR,,0.00,WeatherDisplay:10.37,2013-02-21 09:20:00,
2013-02-21 01:25:00,42.6,21.1,29.80,ESE,121,2.0,5.0,42,0.00,CLR,,0.00,WeatherDisplay:10.37,2013-02-21 09:25:00,
2013-02-21 01:30:00,42.8,20.7,29.80,ESE,103,2.0,6.0,41,0.00,CLR,,0.00,WeatherDisplay:10.37,2013-02-21 09:30:00,
2013-02-21 01:34:00,42.8,20.7,29.80,ENE,69,2.0,5.0,41,0.00,CLR,,0.00,WeatherDisplay:10.37,2013-02-21 09:34:00,
2013-02-21 01:40:00,42.6,20.5,29.80,ENE,66,1.0,4.0,41,0.00,CLR,,0.00,WeatherDisplay:10.37,2013-02-21 09:40:00,
2013-02-21 01:44:00,42.6,20.5,29.80,NE,47,3.0,6.0,41,0.00,CLR,,0.00,WeatherDisplay:10.37,2013-02-21 09:44:00,
2013-02-21 01:50:00,42.7,20.7,29.80,North,9,0.0,3.0,41,0.00,CLR,,0.00,WeatherDisplay:10.37,2013-02-21 09:50:00,
2013-02-21 01:55:00,42.4,20.4,29.80,NE,52,0.0,3.0,41,0.00,CLR,,0.00,WeatherDisplay:10.37,2013-02-21 09:55:00,
2013-02-21 01:59:00,42.2,20.7,29.80,ESE,119,0.0,3.0,42,0.00,CLR,,0.00,WeatherDisplay:10.37,2013-02-21 09:59:00,
2013-02-21 02:04:00,42.3,20.8,29.80,ESE,119,1.0,5.0,42,0.00,CLR,,0.00,WeatherDisplay:10.37,2013-02-21 10:04:00,
2013-02-21 02:10:00,42.6,20.5,29.80,ENE,62,2.0,6.0,41,0.00,CLR,,0.00,WeatherDisplay:10.37,2013-02-21 10:10:00,
2013-02-21 02:15:00,42.8,20.7,29.80,NW,324,2.0,3.0,41,0.00,CLR,,0.00,WeatherDisplay:10.37,2013-02-21 10:15:00,
2013-02-21 02:20:00,42.8,20.7,29.80,NNW,332,2.0,5.0,41,0.00,CLR,,0.00,WeatherDisplay:10.37,2013-02-21 10:20:00,
2013-02-21 02:25:00,43.0,20.9,29.80,North,11,0.0,5.0,41,0.00,CLR,,0.00,WeatherDisplay:10.37,2013-02-21 10:25:00,
2013-02-21 02:30:00,42.6,20.5,29.80,North,6,1.0,6.0,41,0.00,CLR,,0.00,WeatherDisplay:10.37,2013-02-21 10:30:00,
2013-02-21 02:35:00,42.1,20.6,29.80,NNW,343,0.0,0.0,42,0.00,CLR,,0.00,WeatherDisplay:10.37,2013-02-21 10:35:00,
2013-02-21 02:40:00,41.7,20.3,29.80,NNW,338,0.0,0.0,42,0.00,CLR,,0.00,WeatherDisplay:10.37,2013-02-21 10:40:00,
2013-02-21 02:44:00,41.5,20.1,29.77,NNW,338,0.0,2.0,42,0.00,CLR,,0.00,WeatherDisplay:10.37,2013-02-21 10:44:00,
2013-02-21 02:50:00,41.4,20.5,29.77,NNW,338,0.0,2.0,43,0.00,CLR,,0.00,WeatherDisplay:10.37,2013-02-21 10:50:00,
2013-02-21 02:55:00,41.4,20.5,29.77,NNW,338,0.0,3.0,43,0.00,CLR,,0.00,WeatherDisplay:10.37,2013-02-21 10:55:00,
2013-02-21 03:00:00,41.5,21.2,29.77,NNW,338,0.0,3.0,44,0.00,CLR,,0.00,WeatherDisplay:10.37,2013-02-21 11:00:00,
2013-02-21 03:04:00,41.6,21.3,29.77,NNW,338,0.0,3.0,44,0.00,CLR,,0.00,WeatherDisplay:10.37,2013-02-21 11:04:00,
2013-02-21 03:10:00,41.7,21.4,29.77,NNW,338,0.0,3.0,44,0.00,CLR,,0.00,WeatherDisplay:10.37,2013-02-21 11:10:00,
2013-02-21 03:20:00,41.5,21.2,29.80,NNE,31,0.0,3.0,44,0.00,CLR,,0.00,WeatherDisplay:10.37,2013-02-21 11:20:00,
2013-02-21 03:24:00,41.2,20.9,29.80,NNW,339,0.0,3.0,44,0.00,CLR,,0.00,WeatherDisplay:10.37,2013-02-21 11:24:00,
2013-02-21 03:30:00,41.0,20.7,29.80,NNW,338,0.0,4.0,44,0.00,CLR,,0.00,WeatherDisplay:10.37,2013-02-21 11:30:00,
2013-02-21 03:35:00,41.0,21.3,29.80,NNW,338,0.0,3.0,45,0.00,CLR,,0.00,WeatherDisplay:10.37,2013-02-21 11:35:00,
2013-02-21 03:40:00,40.8,21.1,29.80,NNW,338,0.0,0.0,45,0.00,CLR,,0.00,WeatherDisplay:10.37,2013-02-21 11:40:00,
2013-02-21 03:44:00,40.5,20.8,29.80,NNW,338,0.0,0.0,45,0.00,CLR,,0.00,WeatherDisplay:10.37,2013-02-21 11:44:00,
2013-02-21 03:50:00,40.1,20.4,29.80,NNW,338,0.0,0.0,45,0.00,CLR,,0.00,WeatherDisplay:10.37,2013-02-21 11:50:00,
2013-02-21 03:55:00,39.9,20.7,29.80,NNW,338,0.0,0.0,46,0.00,CLR,,0.00,WeatherDisplay:10.37,2013-02-21 11:55:00,
2013-02-21 04:00:00,39.6,20.5,29.77,NNW,338,0.0,0.0,46,0.00,CLR,,0.00,WeatherDisplay:10.37,2013-02-21 12:00:00,
2013-02-21 04:05:00,40.0,21.4,29.77,NNW,338,0.0,0.0,47,0.00,CLR,,0.00,WeatherDisplay:10.37,2013-02-21 12:05:00,
2013-02-21 04:10:00,39.9,21.3,29.77,NNW,338,0.0,0.0,47,0.00,CLR,,0.00,WeatherDisplay:10.37,2013-02-21 12:10:00,
2013-02-21 04:19:00,40.4,22.3,29.77,NNW,338,0.0,3.0,48,0.00,CLR,,0.00,WeatherDisplay:10.37,2013-02-21 12:19:00,
2013-02-21 04:25:00,40.5,21.8,29.77,NNW,338,0.0,2.0,47,0.00,CLR,,0.00,WeatherDisplay:10.37,2013-02-21 12:25:00,
2013-02-21 04:30:00,40.6,21.4,29.80,NNW,338,0.0,0.0,46,0.00,CLR,,0.00,WeatherDisplay:10.37,2013-02-21 12:30:00,
2013-02-21 04:40:00,40.6,21.4,29.80,North,350,0.0,3.0,46,0.00,CLR,,0.00,WeatherDisplay:10.37,2013-02-21 12:40:00,
2013-02-21 04:45:00,40.5,21.3,29.80,NNE,23,0.0,4.0,46,0.00,CLR,,0.00,WeatherDisplay:10.37,2013-02-21 12:45:00,
2013-02-21 04:50:00,41.0,21.3,29.80,NNE,32,2.0,6.0,45,0.00,CLR,,0.00,WeatherDisplay:10.37,2013-02-21 12:50:00,
2013-02-21 04:55:00,41.8,22.5,29.80,North,2,2.0,4.0,46,0.00,CLR,,0.00,WeatherDisplay:10.37,2013-02-21 12:55:00,
2013-02-21 04:59:00,42.3,22.4,29.80,NNW,347,3.0,5.0,45,0.00,CLR,,0.00,WeatherDisplay:10.37,2013-02-21 12:59:00,
2013-02-21 05:04:00,42.9,22.5,29.80,North,357,2.0,6.0,44,0.00,CLR,,0.00,WeatherDisplay:10.37,2013-02-21 13:04:00,
2013-02-21 05:10:00,43.3,21.8,29.80,NNW,347,3.0,6.0,42,0.00,CLR,,0.00,WeatherDisplay:10.37,2013-02-21 13:10:00,
2013-02-21 05:14:00,43.5,21.3,29.80,NNW,348,5.0,8.0,41,0.00,CLR,,0.00,WeatherDisplay:10.37,2013-02-21 13:14:00,
2013-02-21 05:20:00,44.1,21.8,29.80,North,11,6.0,8.0,41,0.00,CLR,,0.00,WeatherDisplay:10.37,2013-02-21 13:20:00,
2013-02-21 05:24:00,43.9,21.1,29.80,North,3,3.0,6.0,40,0.00,CLR,,0.00,WeatherDisplay:10.37,2013-02-21 13:24:00,
2013-02-21 05:29:00,43.7,20.9,29.80,North,358,3.0,8.0,40,0.00,CLR,,0.00,WeatherDisplay:10.37,2013-02-21 13:29:00,
2013-02-21 05:34:00,43.0,20.3,29.80,North,4,1.0,5.0,40,0.00,CLR,,0.00,WeatherDisplay:10.37,2013-02-21 13:34:00,
2013-02-21 05:40:00,42.6,20.5,29.80,North,1,2.0,5.0,41,0.00,CLR,,0.00,WeatherDisplay:10.37,2013-02-21 13:40:00,
2013-02-21 05:44:00,42.5,21.0,29.80,North,0,5.0,6.0,42,0.00,CLR,,0.00,WeatherDisplay:10.37,2013-02-21 13:44:00,
2013-02-21 05:50:00,42.6,21.1,29.80,North,2,2.0,6.0,42,0.00,CLR,,0.00,WeatherDisplay:10.37,2013-02-21 13:50:00,
2013-02-21 05:54:00,42.0,21.1,29.80,North,356,0.0,5.0,43,0.00,CLR,,0.00,WeatherDisplay:10.37,2013-02-21 13:54:00,
2013-02-21 05:59:00,41.9,21.0,29.80,NNW,330,1.0,4.0,43,0.00,CLR,,0.00,WeatherDisplay:10.37,2013-02-21 13:59:00,
2013-02-21 06:05:00,41.3,20.4,29.80,NW,315,0.0,3.0,43,0.00,CLR,,0.00,WeatherDisplay:10.37,2013-02-21 14:05:00,
2013-02-21 06:10:00,40.9,20.1,29.80,NW,315,0.0,0.0,43,0.00,CLR,,0.00,WeatherDisplay:10.37,2013-02-21 14:10:00,
2013-02-21 06:14:00,40.5,20.2,29.80,NW,315,1.0,3.0,44,0.00,CLR,,0.00,WeatherDisplay:10.37,2013-02-21 14:14:00,
2013-02-21 06:20:00,40.1,20.4,29.80,NW,315,1.0,3.0,45,0.00,CLR,,0.00,WeatherDisplay:10.37,2013-02-21 14:20:00,
2013-02-21 06:25:00,39.7,20.1,29.80,NW,306,2.0,3.0,45,0.00,CLR,,0.00,WeatherDisplay:10.37,2013-02-21 14:25:00,
2013-02-21 06:30:00,39.6,20.5,29.80,WNW,298,0.0,3.0,46,0.00,CLR,,0.00,WeatherDisplay:10.37,2013-02-21 14:30:00,
2013-02-21 06:35:00,39.4,20.3,29.80,WNW,292,2.0,3.0,46,0.00,CLR,,0.00,WeatherDisplay:10.37,2013-02-21 14:35:00,
2013-02-21 06:40:00,39.0,20.5,29.80,WNW,292,0.0,3.0,47,0.00,CLR,,0.00,WeatherDisplay:10.37,2013-02-21 14:40:00,
2013-02-21 06:44:00,39.2,20.6,29.83,WNW,292,2.0,3.0,47,0.00,CLR,,0.00,WeatherDisplay:10.37,2013-02-21 14:44:00,
2013-02-21 06:50:00,39.2,20.6,29.83,WNW,292,0.0,3.0,47,0.00,CLR,,0.00,WeatherDisplay:10.37,2013-02-21 14:50:00,
2013-02-21 06:55:00,39.2,21.1,29.83,WNW,292,1.0,3.0,48,0.00,CLR,,0.00,WeatherDisplay:10.37,2013-02-21 14:55:00,
2013-02-21 06:59:00,39.2,20.6,29.83,WNW,292,0.0,3.0,47,0.00,CLR,,0.00,WeatherDisplay:10.37,2013-02-21 14:59:00,
2013-02-21 07:05:00,39.7,21.6,29.83,WNW,292,0.0,4.0,48,0.00,CLR,,0.00,WeatherDisplay:10.37,2013-02-21 15:05:00,
2013-02-21 07:10:00,39.7,21.6,29.83,WNW,292,1.0,3.0,48,0.00,CLR,,0.00,WeatherDisplay:10.37,2013-02-21 15:10:00,
2013-02-21 07:20:00,39.7,21.6,29.80,WNW,292,0.0,3.0,48,0.00,CLR,,0.00,WeatherDisplay:10.37,2013-02-21 15:20:00,
2013-02-21 07:30:00,41.4,23.1,29.83,WNW,292,0.0,3.0,48,0.00,CLR,,0.00,WeatherDisplay:10.37,2013-02-21 15:30:00,
2013-02-21 07:35:00,41.7,22.9,29.83,WNW,292,0.0,0.0,47,0.00,CLR,,0.00,WeatherDisplay:10.37,2013-02-21 15:35:00,
2013-02-21 07:40:00,42.1,23.3,29.83,WNW,292,1.0,5.0,47,0.00,CLR,,0.00,WeatherDisplay:10.37,2013-02-21 15:40:00,
2013-02-21 07:45:00,43.0,23.1,29.83,WNW,300,1.0,5.0,45,0.00,CLR,,0.00,WeatherDisplay:10.37,2013-02-21 15:45:00,
2013-02-21 07:50:00,43.3,22.9,29.83,NW,324,1.0,4.0,44,0.00,CLR,,0.00,WeatherDisplay:10.37,2013-02-21 15:50:00,
2013-02-21 07:55:00,43.7,22.6,29.83,NNW,345,2.0,4.0,43,0.00,CLR,,0.00,WeatherDisplay:10.37,2013-02-21 15:55:00,
2013-02-21 07:59:00,44.2,23.1,29.83,North,355,0.0,3.0,43,0.00,CLR,,0.00,WeatherDisplay:10.37,2013-02-21 15:59:00,
2013-02-21 08:05:00,44.6,22.9,29.83,North,0,0.0,3.0,42,0.00,CLR,,0.00,WeatherDisplay:10.37,2013-02-21 16:05:00,
2013-02-21 08:10:00,45.0,22.7,29.83,North,0,1.0,4.0,41,0.00,CLR,,0.00,WeatherDisplay:10.37,2013-02-21 16:10:00,
2013-02-21 08:15:00,45.5,22.5,29.83,North,0,0.0,3.0,40,0.00,CLR,,0.00,WeatherDisplay:10.37,2013-02-21 16:15:00,
2013-02-21 08:25:00,46.4,22.1,29.83,North,3,2.0,5.0,38,0.00,CLR,,0.00,WeatherDisplay:10.37,2013-02-21 16:25:00,
2013-02-21 08:30:00,46.8,22.5,29.85,North,358,2.0,6.0,38,0.00,CLR,,0.00,WeatherDisplay:10.37,2013-02-21 16:30:00,
2013-02-21 08:34:00,46.9,22.6,29.85,North,350,3.0,6.0,38,0.00,CLR,,0.00,WeatherDisplay:10.37,2013-02-21 16:34:00,
2013-02-21 08:40:00,47.2,22.2,29.85,North,1,3.0,6.0,37,0.00,CLR,,0.00,WeatherDisplay:10.37,2013-02-21 16:40:00,
2013-02-21 08:44:00,47.9,22.8,29.85,North,9,1.0,6.0,37,0.00,CLR,,0.00,WeatherDisplay:10.37,2013-02-21 16:44:00,
2013-02-21 08:50:00,48.1,22.4,29.85,NNE,12,3.0,6.0,36,0.00,CLR,,0.00,WeatherDisplay:10.37,2013-02-21 16:50:00,
2013-02-21 08:54:00,48.4,22.0,29.85,NNE,19,1.0,7.0,35,0.00,CLR,,0.00,WeatherDisplay:10.37,2013-02-21 16:54:00,
2013-02-21 08:59:00,48.8,21.7,29.85,North,7,2.0,6.0,34,0.00,CLR,,0.00,WeatherDisplay:10.37,2013-02-21 16:59:00,
2013-02-21 09:09:00,49.5,20.8,29.85,North,359,2.0,5.0,32,0.00,CLR,,0.00,WeatherDisplay:10.37,2013-02-21 17:09:00,
2013-02-21 09:14:00,49.5,20.0,29.85,North,7,5.0,6.0,31,0.00,CLR,,0.00,WeatherDisplay:10.37,2013-02-21 17:14:00,
2013-02-21 09:19:00,49.6,19.4,29.85,NE,40,3.0,6.0,30,0.00,CLR,,0.00,WeatherDisplay:10.37,2013-02-21 17:19:00,
2013-02-21 09:25:00,49.8,18.8,29.85,NE,54,3.0,6.0,29,0.00,CLR,,0.00,WeatherDisplay:10.37,2013-02-21 17:25:00,
2013-02-21 09:30:00,50.4,19.3,29.85,NNE,32,2.0,5.0,29,0.00,CLR,,0.00,WeatherDisplay:10.37,2013-02-21 17:30:00,
2013-02-21 09:40:00,51.4,20.2,29.85,NNE,27,3.0,6.0,29,0.00,CLR,,0.00,WeatherDisplay:10.37,2013-02-21 17:40:00,
2013-02-21 09:44:00,51.5,19.4,29.85,NNE,26,2.0,8.0,28,0.00,CLR,,0.00,WeatherDisplay:10.37,2013-02-21 17:44:00,
2013-02-21 09:50:00,51.5,18.6,29.85,North,7,5.0,8.0,27,0.00,CLR,,0.00,WeatherDisplay:10.37,2013-02-21 17:50:00,
2013-02-21 10:00:00,51.6,17.8,29.85,North,9,7.0,12.0,26,0.00,CLR,,0.00,WeatherDisplay:10.37,2013-02-21 18:00:00,
2013-02-21 10:05:00,52.0,18.1,29.85,North,5,5.0,9.0,26,0.00,CLR,,0.00,WeatherDisplay:10.37,2013-02-21 18:05:00,
2013-02-21 10:10:00,52.3,18.4,29.85,North,4,5.0,12.0,26,0.00,CLR,,0.00,WeatherDisplay:10.37,2013-02-21 18:10:00,
2013-02-21 10:15:00,52.5,18.6,29.88,North,7,5.0,8.0,26,0.00,CLR,,0.00,WeatherDisplay:10.37,2013-02-21 18:15:00,
2013-02-21 10:20:00,52.2,17.3,29.88,North,6,6.0,10.0,25,0.00,CLR,,0.00,WeatherDisplay:10.37,2013-02-21 18:20:00,
2013-02-21 10:25:00,52.2,17.3,29.88,North,3,7.0,14.0,25,0.00,CLR,,0.00,WeatherDisplay:10.37,2013-02-21 18:25:00,
2013-02-21 10:34:00,52.5,15.7,29.88,North,8,6.0,10.0,23,0.00,CLR,,0.00,WeatherDisplay:10.37,2013-02-21 18:34:00,
2013-02-21 10:39:00,52.7,15.9,29.88,North,4,6.0,10.0,23,0.00,CLR,,0.00,WeatherDisplay:10.37,2013-02-21 18:39:00,
2013-02-21 10:45:00,53.2,16.3,29.88,North,6,7.0,13.0,23,0.00,CLR,,0.00,WeatherDisplay:10.37,2013-02-21 18:45:00,
2013-02-21 10:50:00,52.9,16.0,29.88,North,358,8.0,10.0,23,0.00,CLR,,0.00,WeatherDisplay:10.37,2013-02-21 18:50:00,
2013-02-21 10:54:00,53.1,16.2,29.88,North,0,5.0,10.0,23,0.00,CLR,,0.00,WeatherDisplay:10.37,2013-02-21 18:54:00,
2013-02-21 10:59:00,53.8,15.8,29.88,North,7,3.0,10.0,22,0.00,CLR,,0.00,WeatherDisplay:10.37,2013-02-21 18:59:00,
2013-02-21 11:04:00,53.6,15.6,29.88,North,4,6.0,10.0,22,0.00,CLR,,0.00,WeatherDisplay:10.37,2013-02-21 19:04:00,
2013-02-21 11:10:00,53.4,15.4,29.88,North,8,7.0,12.0,22,0.00,CLR,,0.00,WeatherDisplay:10.37,2013-02-21 19:10:00,
2013-02-21 11:14:00,53.4,15.5,29.88,North,3,7.0,8.0,22,0.00,CLR,,0.00,WeatherDisplay:10.37,2013-02-21 19:14:00,
2013-02-21 11:19:00,53.6,15.6,29.88,North,359,7.0,10.0,22,0.00,CLR,,0.00,WeatherDisplay:10.37,2013-02-21 19:19:00,
2013-02-21 11:24:00,54.0,15.9,29.88,North,2,6.0,10.0,22,0.00,CLR,,0.00,WeatherDisplay:10.37,2013-02-21 19:24:00,
2013-02-21 11:30:00,54.2,16.1,29.88,North,7,3.0,8.0,22,0.00,CLR,,0.00,WeatherDisplay:10.37,2013-02-21 19:30:00,
2013-02-21 11:34:00,54.1,16.1,29.88,NNE,12,5.0,10.0,22,0.00,CLR,,0.00,WeatherDisplay:10.37,2013-02-21 19:34:00,
2013-02-21 11:39:00,54.4,15.2,29.88,NNE,20,5.0,10.0,21,0.00,CLR,,0.00,WeatherDisplay:10.37,2013-02-21 19:39:00,
2013-02-21 11:44:00,54.5,14.2,29.88,NNE,22,5.0,13.0,20,0.00,CLR,,0.00,WeatherDisplay:10.37,2013-02-21 19:44:00,
2013-02-21 11:50:00,54.7,14.3,29.88,North,6,6.0,9.0,20,0.00,CLR,,0.00,WeatherDisplay:10.37,2013-02-21 19:50:00,
2013-02-21 11:54:00,55.2,13.6,29.88,North,354,5.0,9.0,19,0.00,CLR,,0.00,WeatherDisplay:10.37,2013-02-21 19:54:00,
2013-02-21 11:59:00,55.5,13.8,29.88,North,2,2.0,10.0,19,0.00,CLR,,0.00,WeatherDisplay:10.37,2013-02-21 19:59:00,
2013-02-21 12:04:00,55.4,13.8,29.88,North,4,5.0,8.0,19,0.00,CLR,,0.00,WeatherDisplay:10.37,2013-02-21 20:04:00,
2013-02-21 12:09:00,55.7,14.0,29.88,North,357,5.0,8.0,19,0.00,CLR,,0.00,WeatherDisplay:10.37,2013-02-21 20:09:00,
2013-02-21 12:14:00,55.9,14.2,29.88,NNW,344,5.0,9.0,19,0.00,CLR,,0.00,WeatherDisplay:10.37,2013-02-21 20:14:00,
2013-02-21 12:19:00,56.1,14.4,29.88,North,0,3.0,6.0,19,0.00,CLR,,0.00,WeatherDisplay:10.37,2013-02-21 20:19:00,
2013-02-21 12:24:00,56.3,14.5,29.88,NNE,20,3.0,8.0,19,0.00,CLR,,0.00,WeatherDisplay:10.37,2013-02-21 20:24:00,
2013-02-21 12:30:00,56.5,14.6,29.88,North,10,6.0,8.0,19,0.00,CLR,,0.00,WeatherDisplay:10.37,2013-02-21 20:30:00,
2013-02-21 12:34:00,56.3,14.5,29.88,NNE,12,3.0,8.0,19,0.00,CLR,,0.00,WeatherDisplay:10.37,2013-02-21 20:34:00,
2013-02-21 12:39:00,56.8,15.0,29.88,North,10,3.0,7.0,19,0.00,CLR,,0.00,WeatherDisplay:10.37,2013-02-21 20:39:00,
2013-02-21 12:44:00,56.4,14.6,29.85,North,351,3.0,6.0,19,0.00,CLR,,0.00,WeatherDisplay:10.37,2013-02-21 20:44:00,
2013-02-21 12:49:00,56.2,14.4,29.85,WNW,283,3.0,6.0,19,0.00,CLR,,0.00,WeatherDisplay:10.37,2013-02-21 20:49:00,
2013-02-21 12:54:00,56.2,16.7,29.85,West,281,2.0,6.0,21,0.00,CLR,,0.00,WeatherDisplay:10.37,2013-02-21 20:54:00,
2013-02-21 12:59:00,56.5,18.0,29.85,NW,324,3.0,7.0,22,0.00,CLR,,0.00,WeatherDisplay:10.37,2013-02-21 20:59:00,
2013-02-21 13:05:00,56.1,17.7,29.85,WNW,298,3.0,7.0,22,0.00,CLR,,0.00,WeatherDisplay:10.37,2013-02-21 21:05:00,
2013-02-21 13:10:00,55.9,17.6,29.85,NNW,329,2.0,5.0,22,0.00,CLR,,0.00,WeatherDisplay:10.37,2013-02-21 21:10:00,
2013-02-21 13:19:00,55.9,17.6,29.88,West,267,2.0,5.0,22,0.00,CLR,,0.00,WeatherDisplay:10.37,2013-02-21 21:19:00,
2013-02-21 13:24:00,56.1,17.7,29.88,NW,308,3.0,6.0,22,0.00,CLR,,0.00,WeatherDisplay:10.37,2013-02-21 21:24:00,
2013-02-21 13:30:00,56.4,18.0,29.85,SW,223,2.0,6.0,22,0.00,CLR,,0.00,WeatherDisplay:10.37,2013-02-21 21:30:00,
2013-02-21 13:34:00,56.2,17.8,29.85,WSW,240,3.0,5.0,22,0.00,CLR,,0.00,WeatherDisplay:10.37,2013-02-21 21:34:00,
2013-02-21 13:40:00,56.4,18.0,29.85,West,260,3.0,6.0,22,0.00,CLR,,0.00,WeatherDisplay:10.37,2013-02-21 21:40:00,
2013-02-21 13:49:00,56.2,17.8,29.88,West,272,3.0,6.0,22,0.00,CLR,,0.00,WeatherDisplay:10.37,2013-02-21 21:49:00,
2013-02-21 13:54:00,56.0,17.7,29.88,SW,232,3.0,7.0,22,0.00,CLR,,0.00,WeatherDisplay:10.37,2013-02-21 21:54:00,
2013-02-21 14:00:00,55.8,17.5,29.85,ESE,112,2.0,6.0,22,0.00,CLR,,0.00,WeatherDisplay:10.37,2013-02-21 22:00:00,
2013-02-21 14:04:00,56.1,17.7,29.85,SSE,154,3.0,5.0,22,0.00,CLR,,0.00,WeatherDisplay:10.37,2013-02-21 22:04:00,
2013-02-21 14:10:00,55.6,17.3,29.85,ENE,61,2.0,5.0,22,0.00,CLR,,0.00,WeatherDisplay:10.37,2013-02-21 22:10:00,
2013-02-21 14:20:00,55.9,17.6,29.85,SW,234,5.0,8.0,22,0.00,CLR,,0.00,WeatherDisplay:10.37,2013-02-21 22:20:00,
2013-02-21 14:24:00,55.8,17.4,29.85,East,82,3.0,6.0,22,0.00,CLR,,0.00,WeatherDisplay:10.37,2013-02-21 22:24:00,
2013-02-21 14:29:00,55.9,17.6,29.85,North,8,3.0,6.0,22,0.00,CLR,,0.00,WeatherDisplay:10.37,2013-02-21 22:29:00,
2013-02-21 14:35:00,55.8,17.5,29.85,WNW,303,3.0,6.0,22,0.00,CLR,,0.00,WeatherDisplay:10.37,2013-02-21 22:35:00,
2013-02-21 14:44:00,55.6,17.3,29.85,East,87,2.0,6.0,22,0.00,CLR,,0.00,WeatherDisplay:10.37,2013-02-21 22:44:00,
2013-02-21 14:49:00,55.4,17.1,29.85,ENE,61,2.0,6.0,22,0.00,CLR,,0.00,WeatherDisplay:10.37,2013-02-21 22:49:00,
2013-02-21 14:54:00,55.5,17.2,29.85,North,360,3.0,6.0,22,0.00,CLR,,0.00,WeatherDisplay:10.37,2013-02-21 22:54:00,
2013-02-21 14:59:00,55.2,17.0,29.85,East,93,5.0,8.0,22,0.00,CLR,,0.00,WeatherDisplay:10.37,2013-02-21 22:59:00,
2013-02-21 15:05:00,55.4,17.1,29.85,NE,35,2.0,6.0,22,0.00,CLR,,0.00,WeatherDisplay:10.37,2013-02-21 23:05:00,
2013-02-21 15:09:00,55.2,17.0,29.85,North,350,3.0,7.0,22,0.00,CLR,,0.00,WeatherDisplay:10.37,2013-02-21 23:09:00,
2013-02-21 15:15:00,55.2,17.0,29.85,North,0,2.0,5.0,22,0.00,CLR,,0.00,WeatherDisplay:10.37,2013-02-21 23:15:00,
2013-02-21 15:20:00,55.2,17.0,29.85,NNE,28,5.0,6.0,22,0.00,CLR,,0.00,WeatherDisplay:10.37,2013-02-21 23:20:00,
2013-02-21 15:24:00,54.7,19.5,29.85,North,360,2.0,6.0,25,0.00,CLR,,0.00,WeatherDisplay:10.37,2013-02-21 23:24:00,
2013-02-21 15:30:00,54.5,19.3,29.85,ENE,58,3.0,5.0,25,0.00,CLR,,0.00,WeatherDisplay:10.37,2013-02-21 23:30:00,
2013-02-21 15:40:00,54.1,19.0,29.85,East,98,3.0,6.0,25,0.00,CLR,,0.00,WeatherDisplay:10.37,2013-02-21 23:40:00,
2013-02-21 15:50:00,54.0,19.8,29.83,ESE,119,3.0,5.0,26,0.00,CLR,,0.00,WeatherDisplay:10.37,2013-02-21 23:50:00,
2013-02-21 15:54:00,54.0,18.9,29.83,ESE,111,3.0,6.0,25,0.00,CLR,,0.00,WeatherDisplay:10.37,2013-02-21 23:54:00,
2013-02-21 15:59:00,54.0,18.9,29.83,East,88,3.0,6.0,25,0.00,CLR,,0.00,WeatherDisplay:10.37,2013-02-21 23:59:00,
2013-02-21 16:05:00,54.0,18.9,29.83,NE,46,1.0,5.0,25,0.00,CLR,,0.00,WeatherDisplay:10.37,2013-02-22 00:05:00,
2013-02-21 16:09:00,53.8,19.7,29.83,NE,37,3.0,8.0,26,0.00,CLR,,0.00,WeatherDisplay:10.37,2013-02-22 00:09:00,
2013-02-21 16:14:00,53.2,19.2,29.83,NE,50,2.0,5.0,26,0.00,CLR,,0.00,WeatherDisplay:10.37,2013-02-22 00:14:00,
2013-02-21 16:20:00,53.2,19.2,29.83,NE,39,2.0,6.0,26,0.00,CLR,,0.00,WeatherDisplay:10.37,2013-02-22 00:20:00,
2013-02-21 16:29:00,52.5,18.6,29.83,ENE,72,2.0,5.0,26,0.00,CLR,,0.00,WeatherDisplay:10.37,2013-02-22 00:29:00,
2013-02-21 16:34:00,52.3,18.4,29.83,NE,40,3.0,5.0,26,0.00,CLR,,0.00,WeatherDisplay:10.37,2013-02-22 00:34:00,
2013-02-21 16:40:00,52.3,18.4,29.83,ENE,74,3.0,5.0,26,0.00,CLR,,0.00,WeatherDisplay:10.37,2013-02-22 00:40:00,
2013-02-21 16:50:00,52.0,18.1,29.83,ESE,102,3.0,5.0,26,0.00,CLR,,0.00,WeatherDisplay:10.37,2013-02-22 00:50:00,
2013-02-21 16:54:00,51.6,18.7,29.83,ESE,114,2.0,5.0,27,0.00,CLR,,0.00,WeatherDisplay:10.37,2013-02-22 00:54:00,
2013-02-21 16:59:00,51.3,19.2,29.83,WSW,256,0.0,5.0,28,0.00,CLR,,0.00,WeatherDisplay:10.37,2013-02-22 00:59:00,
2013-02-21 17:04:00,50.9,19.7,29.83,WSW,255,2.0,5.0,29,0.00,CLR,,0.00,WeatherDisplay:10.37,2013-02-22 01:04:00,
2013-02-21 17:09:00,50.5,19.4,29.83,ESE,122,3.0,5.0,29,0.00,CLR,,0.00,WeatherDisplay:10.37,2013-02-22 01:09:00,
2013-02-21 17:14:00,50.2,19.1,29.85,ESE,112,1.0,6.0,29,0.00,CLR,,0.00,WeatherDisplay:10.37,2013-02-22 01:14:00,
2013-02-21 17:20:00,49.8,20.3,29.85,SE,142,2.0,5.0,31,0.00,CLR,,0.00,WeatherDisplay:10.37,2013-02-22 01:20:00,
2013-02-21 17:24:00,49.4,22.2,29.85,SSW,202,2.0,6.0,34,0.00,CLR,,0.00,WeatherDisplay:10.37,2013-02-22 01:24:00,
2013-02-21 17:30:00,49.1,21.2,29.83,SW,219,1.0,5.0,33,0.00,CLR,,0.00,WeatherDisplay:10.37,2013-02-22 01:30:00,
2013-02-21 17:35:00,48.9,23.1,29.83,WSW,242,0.0,5.0,36,0.00,CLR,,0.00,WeatherDisplay:10.37,2013-02-22 01:35:00,
2013-02-21 17:44:00,48.6,23.4,29.83,SE,131,1.0,5.0,37,0.00,CLR,,0.00,WeatherDisplay:10.37,2013-02-22 01:44:00,
2013-02-21 17:50:00,48.2,23.1,29.83,SSE,164,1.0,7.0,37,0.00,CLR,,0.00,WeatherDisplay:10.37,2013-02-22 01:50:00,
2013-02-21 17:55:00,48.1,23.0,29.83,SW,222,3.0,5.0,37,0.00,CLR,,0.00,WeatherDisplay:10.37,2013-02-22 01:55:00,
2013-02-21 17:59:00,47.7,22.7,29.83,SSW,207,1.0,5.0,37,0.00,CLR,,0.00,WeatherDisplay:10.37,2013-02-22 01:59:00,
2013-02-21 18:04:00,47.7,22.6,29.83,South,191,1.0,3.0,37,0.00,CLR,,0.00,WeatherDisplay:10.37,2013-02-22 02:04:00,
2013-02-21 18:09:00,47.7,23.9,29.83,SW,225,1.0,5.0,39,0.00,CLR,,0.00,WeatherDisplay:10.37,2013-02-22 02:09:00,
2013-02-21 18:14:00,47.5,23.7,29.83,SW,215,1.0,5.0,39,0.00,CLR,,0.00,WeatherDisplay:10.37,2013-02-22 02:14:00,
2013-02-21 18:19:00,47.3,22.9,29.83,South,171,1.0,5.0,38,0.00,CLR,,0.00,WeatherDisplay:10.37,2013-02-22 02:19:00,
2013-02-21 18:29:00,47.1,23.4,29.83,WSW,251,1.0,6.0,39,0.00,CLR,,0.00,WeatherDisplay:10.37,2013-02-22 02:29:00,
2013-02-21 18:34:00,46.9,23.2,29.83,SW,236,2.0,5.0,39,0.00,CLR,,0.00,WeatherDisplay:10.37,2013-02-22 02:34:00,
2013-02-21 18:39:00,46.9,22.6,29.83,WSW,249,0.0,5.0,38,0.00,CLR,,0.00,WeatherDisplay:10.37,2013-02-22 02:39:00,
2013-02-21 18:44:00,46.9,22.6,29.85,SW,223,3.0,6.0,38,0.00,CLR,,0.00,WeatherDisplay:10.37,2013-02-22 02:44:00,
2013-02-21 18:50:00,46.8,22.5,29.85,SW,228,1.0,3.0,38,0.00,CLR,,0.00,WeatherDisplay:10.37,2013-02-22 02:50:00,
2013-02-21 18:59:00,46.8,21.8,29.85,SW,221,0.0,4.0,37,0.00,CLR,,0.00,WeatherDisplay:10.37,2013-02-22 02:59:00,
2013-02-21 19:04:00,46.8,21.9,29.85,South,188,0.0,3.0,37,0.00,CLR,,0.00,WeatherDisplay:10.37,2013-02-22 03:04:00,
2013-02-21 19:09:00,46.7,21.8,29.85,SSE,158,3.0,5.0,37,0.00,CLR,,0.00,WeatherDisplay:10.37,2013-02-22 03:09:00,
2013-02-21 19:14:00,46.6,21.7,29.85,SSE,158,2.0,5.0,37,0.00,CLR,,0.00,WeatherDisplay:10.37,2013-02-22 03:14:00,
2013-02-21 19:20:00,46.8,21.8,29.85,ESE,112,3.0,6.0,37,0.00,CLR,,0.00,WeatherDisplay:10.37,2013-02-22 03:20:00,
2013-02-21 19:29:00,45.9,21.1,29.85,NE,45,0.0,3.0,37,0.00,CLR,,0.00,WeatherDisplay:10.37,2013-02-22 03:29:00,
2013-02-21 19:34:00,45.7,20.9,29.85,NE,45,0.0,0.0,37,0.00,CLR,,0.00,WeatherDisplay:10.37,2013-02-22 03:34:00,
2013-02-21 19:40:00,45.4,20.6,29.85,NE,45,0.0,0.0,37,0.00,CLR,,0.00,WeatherDisplay:10.37,2013-02-22 03:40:00,
2013-02-21 19:49:00,45.2,20.4,29.85,NE,45,2.0,4.0,37,0.00,CLR,,0.00,WeatherDisplay:10.37,2013-02-22 03:49:00,
2013-02-21 19:54:00,45.1,21.0,29.85,NE,45,1.0,4.0,38,0.00,CLR,,0.00,WeatherDisplay:10.37,2013-02-22 03:54:00,
2013-02-21 19:59:00,45.0,20.9,29.85,NE,37,1.0,4.0,38,0.00,CLR,,0.00,WeatherDisplay:10.37,2013-02-22 03:59:00,
2013-02-21 20:04:00,44.8,21.3,29.85,West,274,3.0,5.0,39,0.00,CLR,,0.00,WeatherDisplay:10.37,2013-02-22 04:04:00,
2013-02-21 20:09:00,44.8,21.3,29.85,WSW,256,0.0,5.0,39,0.00,CLR,,0.00,WeatherDisplay:10.37,2013-02-22 04:09:00,
2013-02-21 20:14:00,44.8,21.9,29.88,WSW,256,2.0,5.0,40,0.00,CLR,,0.00,WeatherDisplay:10.37,2013-02-22 04:14:00,
2013-02-21 20:19:00,44.6,21.7,29.88,WSW,249,2.0,5.0,40,0.00,CLR,,0.00,WeatherDisplay:10.37,2013-02-22 04:19:00,
2013-02-21 20:24:00,44.4,21.6,29.88,West,259,0.0,4.0,40,0.00,CLR,,0.00,WeatherDisplay:10.37,2013-02-22 04:24:00,
2013-02-21 20:30:00,44.2,21.4,29.85,West,279,0.0,0.0,40,0.00,CLR,,0.00,WeatherDisplay:10.37,2013-02-22 04:30:00,
2013-02-21 20:39:00,44.1,22.4,29.85,West,277,1.0,5.0,42,0.00,CLR,,0.00,WeatherDisplay:10.37,2013-02-22 04:39:00,
2013-02-21 20:44:00,44.2,22.6,29.85,West,268,0.0,5.0,42,0.00,CLR,,0.00,WeatherDisplay:10.37,2013-02-22 04:44:00,
2013-02-21 20:49:00,43.7,22.1,29.85,WSW,250,1.0,3.0,42,0.00,CLR,,0.00,WeatherDisplay:10.37,2013-02-22 04:49:00,
2013-02-21 20:54:00,43.3,21.8,29.85,WSW,248,0.0,3.0,42,0.00,CLR,,0.00,WeatherDisplay:10.37,2013-02-22 04:54:00,
2013-02-21 20:59:00,43.7,22.0,29.85,WSW,248,0.0,3.0,42,0.00,CLR,,0.00,WeatherDisplay:10.37,2013-02-22 04:59:00,
2013-02-21 21:05:00,43.4,21.8,29.85,WSW,248,0.0,4.0,42,0.00,CLR,,0.00,WeatherDisplay:10.37,2013-02-22 05:05:00,
2013-02-21 21:10:00,43.2,22.1,29.85,WSW,248,0.0,0.0,43,0.00,CLR,,0.00,WeatherDisplay:10.37,2013-02-22 05:10:00,
2013-02-21 21:14:00,43.5,23.0,29.88,WSW,248,1.0,3.0,44,0.00,CLR,,0.00,WeatherDisplay:10.37,2013-02-22 05:14:00,
2013-02-21 21:19:00,42.8,21.8,29.88,WSW,248,0.0,0.0,43,0.00,CLR,,0.00,WeatherDisplay:10.37,2013-02-22 05:19:00,
2013-02-21 21:24:00,42.8,22.4,29.88,WSW,248,0.0,0.0,44,0.00,CLR,,0.00,WeatherDisplay:10.37,2013-02-22 05:24:00,
2013-02-21 21:29:00,43.1,22.7,29.88,WSW,248,1.0,4.0,44,0.00,CLR,,0.00,WeatherDisplay:10.37,2013-02-22 05:29:00,
2013-02-21 21:34:00,42.7,22.3,29.88,WSW,248,2.0,3.0,44,0.00,CLR,,0.00,WeatherDisplay:10.37,2013-02-22 05:34:00,
2013-02-21 21:39:00,42.6,22.2,29.88,WSW,248,1.0,5.0,44,0.00,CLR,,0.00,WeatherDisplay:10.37,2013-02-22 05:39:00,
2013-02-21 21:44:00,42.6,22.7,29.88,WSW,251,2.0,5.0,45,0.00,CLR,,0.00,WeatherDisplay:10.37,2013-02-22 05:44:00,
2013-02-21 21:49:00,42.6,23.3,29.88,WSW,255,2.0,5.0,46,0.00,CLR,,0.00,WeatherDisplay:10.37,2013-02-22 05:49:00,
2013-02-21 21:54:00,43.0,24.1,29.88,WSW,252,1.0,5.0,47,0.00,CLR,,0.00,WeatherDisplay:10.37,2013-02-22 05:54:00,
2013-02-21 21:59:00,42.7,23.9,29.88,WSW,248,2.0,3.0,47,0.00,CLR,,0.00,WeatherDisplay:10.37,2013-02-22 05:59:00,
2013-02-21 22:04:00,42.8,24.4,29.88,WSW,248,0.0,3.0,48,0.00,CLR,,0.00,WeatherDisplay:10.37,2013-02-22 06:04:00,
2013-02-21 22:09:00,42.6,24.3,29.88,WSW,248,0.0,3.0,48,0.00,CLR,,0.00,WeatherDisplay:10.37,2013-02-22 06:09:00,
2013-02-21 22:14:00,43.1,24.8,29.88,WSW,248,0.0,3.0,48,0.00,CLR,,0.00,WeatherDisplay:10.37,2013-02-22 06:14:00,
2013-02-21 22:19:00,42.6,24.3,29.88,WSW,248,0.0,0.0,48,0.00,CLR,,0.00,WeatherDisplay:10.37,2013-02-22 06:19:00,
2013-02-21 22:24:00,42.8,24.4,29.88,WSW,248,0.0,3.0,48,0.00,CLR,,0.00,WeatherDisplay:10.37,2013-02-22 06:24:00,
2013-02-21 22:30:00,42.9,24.5,29.88,WSW,248,0.0,3.0,48,0.00,CLR,,0.00,WeatherDisplay:10.37,2013-02-22 06:30:00,
2013-02-21 22:39:00,42.8,24.4,29.88,WSW,248,0.0,0.0,48,0.00,CLR,,0.00,WeatherDisplay:10.37,2013-02-22 06:39:00,
2013-02-21 22:44:00,43.3,25.4,29.88,WSW,248,0.0,0.0,49,0.00,CLR,,0.00,WeatherDisplay:10.37,2013-02-22 06:44:00,
2013-02-21 22:50:00,43.5,25.6,29.88,WSW,248,0.0,0.0,49,0.00,CLR,,0.00,WeatherDisplay:10.37,2013-02-22 06:50:00,
2013-02-21 22:54:00,43.0,24.6,29.88,WSW,248,0.0,0.0,48,0.00,CLR,,0.00,WeatherDisplay:10.37,2013-02-22 06:54:00,
2013-02-21 22:59:00,42.6,23.8,29.88,WSW,248,0.0,0.0,47,0.00,CLR,,0.00,WeatherDisplay:10.37,2013-02-22 06:59:00,
2013-02-21 23:04:00,42.3,23.9,29.88,WSW,248,0.0,0.0,48,0.00,CLR,,0.00,WeatherDisplay:10.37,2013-02-22 07:04:00,
2013-02-21 23:09:00,41.9,23.1,29.88,WSW,248,0.0,0.0,47,0.00,CLR,,0.00,WeatherDisplay:10.37,2013-02-22 07:09:00,
2013-02-21 23:14:00,42.3,23.4,29.88,WSW,248,0.0,0.0,47,0.00,CLR,,0.00,WeatherDisplay:10.37,2013-02-22 07:14:00,
2013-02-21 23:19:00,42.2,23.4,29.88,WSW,248,0.0,0.0,47,0.00,CLR,,0.00,WeatherDisplay:10.37,2013-02-22 07:19:00,
2013-02-21 23:24:00,42.3,23.4,29.88,WSW,248,0.0,3.0,47,0.00,CLR,,0.00,WeatherDisplay:10.37,2013-02-22 07:24:00,
2013-02-21 23:29:00,42.9,23.5,29.88,WSW,248,0.0,3.0,46,0.00,CLR,,0.00,WeatherDisplay:10.37,2013-02-22 07:29:00,
2013-02-21 23:34:00,42.7,22.8,29.88,WSW,248,0.0,0.0,45,0.00,CLR,,0.00,WeatherDisplay:10.37,2013-02-22 07:34:00,
2013-02-21 23:40:00,42.6,22.7,29.88,WSW,248,0.0,0.0,45,0.00,CLR,,0.00,WeatherDisplay:10.37,2013-02-22 07:40:00,
2013-02-21 23:44:00,42.8,23.4,29.88,WSW,248,0.0,3.0,46,0.00,CLR,,0.00,WeatherDisplay:10.37,2013-02-22 07:44:00,
2013-02-21 23:49:00,42.1,22.2,29.88,WSW,248,0.0,3.0,45,0.00,CLR,,0.00,WeatherDisplay:10.37,2013-02-22 07:49:00,
2013-02-21 23:54:00,41.9,22.1,29.88,WSW,248,0.0,0.0,45,0.00,CLR,,0.00,WeatherDisplay:10.37,2013-02-22 07:54:00,
2013-02-21 23:59:00,42.1,22.3,29.88,WSW,248,1.0,3.0,45,0.00,CLR,,0.00,WeatherDisplay:10.37,2013-02-22 07:59:00,